Zurück zum Katalog

KUIPER-00038

AktivKommunikationLEO
NORAD 63750·PAYLOAD·🇺🇸 United States

Gestartet Apr 28, 2025 von Cape Canaveral Space Force Station

Loading…

Nächste Überflüge (nächste 24 Stunden)

TLE

AktuellSource: CelesTrak SupGP

Epoche: Sep 14, 2026, 20:42 UTC

1 63750C 25088AC  26257.86271991  .00002882  00000+0  37734-3 0  2572
2 63750  51.9022 341.5999 0000593  98.0428 189.5408 14.79921909    17

Verfolge KUIPER-00038 in Echtzeit mit AllMySat

Download on the App Store